Time,TemperatureF,DewpointF,PressureIn,WindDirection,WindDirectionDegrees,WindSpeedMPH,WindSpeedGustMPH,Humidity,HourlyPrecipIn,Conditions,Clouds,dailyrainin,SoftwareType,DateUTC
2013-07-06 00:00:00,76.1,55.5,29.45,SE,136,0.0,14.0,49,0.00,,,0.00,Wunderground v.1.13,2013-07-06 06:00:00,
2013-07-06 00:05:00,75.8,55.3,29.45,SE,136,0.0,14.0,49,0.00,,,0.00,Wunderground v.1.13,2013-07-06 06:05:00,
2013-07-06 00:10:00,75.8,55.3,29.45,SSE,158,0.0,14.0,49,0.00,,,0.00,Wunderground v.1.13,2013-07-06 06:10:00,
2013-07-06 00:15:00,75.8,55.3,29.45,SSE,156,0.0,14.0,49,0.00,,,0.00,Wunderground v.1.13,2013-07-06 06:15:00,
2013-07-06 00:20:00,75.6,55.1,29.45,SE,130,0.0,14.0,49,0.00,,,0.00,Wunderground v.1.13,2013-07-06 06:20:00,
2013-07-06 00:30:00,75.3,55.4,29.45,SE,137,0.0,14.0,50,0.00,,,0.00,Wunderground v.1.13,2013-07-06 06:30:00,
2013-07-06 00:35:00,75.1,55.2,29.43,SE,137,0.0,14.0,50,0.00,,,0.00,Wunderground v.1.13,2013-07-06 06:35:00,
2013-07-06 00:40:00,74.7,54.8,29.43,SE,133,0.0,14.0,50,0.00,,,0.00,Wunderground v.1.13,2013-07-06 06:40:00,
2013-07-06 00:45:00,74.6,54.7,29.43,ESE,103,0.0,14.0,50,0.00,,,0.00,Wunderground v.1.13,2013-07-06 06:45:00,
2013-07-06 00:50:00,74.2,54.9,29.43,ESE,102,0.0,14.0,51,0.00,,,0.00,Wunderground v.1.13,2013-07-06 06:50:00,
2013-07-06 00:55:00,73.9,54.6,29.43,ESE,102,0.0,14.0,51,0.00,,,0.00,Wunderground v.1.13,2013-07-06 06:55:00,
2013-07-06 01:00:00,73.7,54.4,29.43,ENE,63,0.0,14.0,51,0.00,,,0.00,Wunderground v.1.13,2013-07-06 07:00:00,
2013-07-06 01:05:00,73.7,54.4,29.42,ENE,63,0.0,14.0,51,0.00,,,0.00,Wunderground v.1.13,2013-07-06 07:05:00,
2013-07-06 01:10:00,73.5,54.3,29.42,ENE,63,0.0,14.0,51,0.00,,,0.00,Wunderground v.1.13,2013-07-06 07:10:00,
2013-07-06 01:15:00,73.3,54.1,29.42,ENE,63,0.0,14.0,51,0.00,,,0.00,Wunderground v.1.13,2013-07-06 07:15:00,
2013-07-06 01:20:00,73.0,54.3,29.42,ENE,63,0.0,14.0,52,0.00,,,0.00,Wunderground v.1.13,2013-07-06 07:20:00,
2013-07-06 01:25:00,73.0,53.8,29.42,East,92,0.0,14.0,51,0.00,,,0.00,Wunderground v.1.13,2013-07-06 07:25:00,
2013-07-06 01:30:00,73.2,54.0,29.42,NE,38,0.0,14.0,51,0.00,,,0.00,Wunderground v.1.13,2013-07-06 07:30:00,
2013-07-06 01:35:00,73.0,53.8,29.42,NE,37,0.0,14.0,51,0.00,,,0.00,Wunderground v.1.13,2013-07-06 07:35:00,
2013-07-06 01:40:00,73.0,53.8,29.42,NNE,20,0.0,14.0,51,0.00,,,0.00,Wunderground v.1.13,2013-07-06 07:40:00,
2013-07-06 01:45:00,72.8,53.6,29.42,NNE,16,0.0,14.0,51,0.00,,,0.00,Wunderground v.1.13,2013-07-06 07:45:00,
2013-07-06 01:50:00,72.7,53.5,29.43,NNE,16,0.0,14.0,51,0.00,,,0.00,Wunderground v.1.13,2013-07-06 07:50:00,
2013-07-06 01:55:00,72.3,53.7,29.43,NNE,16,0.0,14.0,52,0.00,,,0.00,Wunderground v.1.13,2013-07-06 07:55:00,
2013-07-06 02:05:00,72.7,54.1,29.43,South,188,0.0,14.0,52,0.00,,,0.00,Wunderground v.1.13,2013-07-06 08:05:00,
2013-07-06 02:10:00,72.5,53.9,29.43,South,188,0.0,14.0,52,0.00,,,0.00,Wunderground v.1.13,2013-07-06 08:10:00,
2013-07-06 02:15:00,72.3,53.7,29.43,South,190,0.0,14.0,52,0.00,,,0.00,Wunderground v.1.13,2013-07-06 08:15:00,
2013-07-06 02:20:00,72.1,54.0,29.44,South,173,0.0,14.0,53,0.00,,,0.00,Wunderground v.1.13,2013-07-06 08:20:00,
2013-07-06 02:25:00,72.0,53.9,29.44,South,190,0.0,14.0,53,0.00,,,0.00,Wunderground v.1.13,2013-07-06 08:25:00,
2013-07-06 02:30:00,71.8,53.7,29.44,West,260,0.0,14.0,53,0.00,,,0.00,Wunderground v.1.13,2013-07-06 08:30:00,
2013-07-06 02:35:00,71.6,53.6,29.44,SW,234,0.0,14.0,53,0.00,,,0.00,Wunderground v.1.13,2013-07-06 08:35:00,
2013-07-06 02:40:00,71.5,54.0,29.44,SW,234,0.0,14.0,54,0.00,,,0.00,Wunderground v.1.13,2013-07-06 08:40:00,
2013-07-06 02:45:00,71.3,53.8,29.44,SW,233,0.0,14.0,54,0.00,,,0.00,Wunderground v.1.13,2013-07-06 08:45:00,
2013-07-06 02:50:00,71.1,54.1,29.43,WSW,237,0.0,14.0,55,0.00,,,0.00,Wunderground v.1.13,2013-07-06 08:50:00,
2013-07-06 02:55:00,70.8,54.3,29.43,WSW,237,0.0,14.0,56,0.00,,,0.00,Wunderground v.1.13,2013-07-06 08:55:00,
2013-07-06 03:00:00,70.4,54.4,29.43,WSW,237,0.0,14.0,57,0.00,,,0.00,Wunderground v.1.13,2013-07-06 09:00:00,
2013-07-06 03:10:00,69.3,54.8,29.43,WSW,237,0.0,14.0,60,0.00,,,0.00,Wunderground v.1.13,2013-07-06 09:10:00,
2013-07-06 03:15:00,68.4,54.0,29.43,WSW,237,0.0,14.0,60,0.00,,,0.00,Wunderground v.1.13,2013-07-06 09:15:00,
2013-07-06 03:20:00,67.9,54.4,29.43,WSW,237,0.0,14.0,62,0.00,,,0.00,Wunderground v.1.13,2013-07-06 09:20:00,
2013-07-06 03:30:00,66.8,54.2,29.43,WSW,237,0.0,14.0,64,0.00,,,0.00,Wunderground v.1.13,2013-07-06 09:30:00,
2013-07-06 03:35:00,66.4,54.3,29.43,WSW,237,0.0,14.0,65,0.00,,,0.00,Wunderground v.1.13,2013-07-06 09:35:00,
2013-07-06 03:40:00,66.3,54.6,29.43,WSW,237,0.0,14.0,66,0.00,,,0.00,Wunderground v.1.13,2013-07-06 09:40:00,
2013-07-06 03:45:00,66.1,54.4,29.43,WSW,237,0.0,14.0,66,0.00,,,0.00,Wunderground v.1.13,2013-07-06 09:45:00,
2013-07-06 03:50:00,65.8,54.5,29.43,WSW,237,0.0,14.0,67,0.00,,,0.00,Wunderground v.1.13,2013-07-06 09:50:00,
2013-07-06 03:55:00,65.5,54.2,29.43,WSW,237,0.0,14.0,67,0.00,,,0.00,Wunderground v.1.13,2013-07-06 09:55:00,
2013-07-06 04:00:00,65.3,54.1,29.43,WSW,237,0.0,14.0,67,0.00,,,0.00,Wunderground v.1.13,2013-07-06 10:00:00,
2013-07-06 04:05:00,65.2,54.4,29.43,WSW,237,0.0,14.0,68,0.00,,,0.00,Wunderground v.1.13,2013-07-06 10:05:00,
2013-07-06 04:10:00,65.0,54.6,29.43,WSW,237,0.0,14.0,69,0.00,,,0.00,Wunderground v.1.13,2013-07-06 10:10:00,
2013-07-06 04:20:00,64.5,54.5,29.43,WSW,237,0.0,14.0,70,0.00,,,0.00,Wunderground v.1.13,2013-07-06 10:20:00,
2013-07-06 04:25:00,64.2,54.6,29.43,WSW,237,0.0,14.0,71,0.00,,,0.00,Wunderground v.1.13,2013-07-06 10:25:00,
2013-07-06 04:30:00,63.9,54.7,29.43,WSW,237,0.0,14.0,72,0.00,,,0.00,Wunderground v.1.13,2013-07-06 10:30:00,
2013-07-06 04:40:00,63.2,54.8,29.42,WSW,237,0.0,14.0,74,0.00,,,0.00,Wunderground v.1.13,2013-07-06 10:40:00,
2013-07-06 04:45:00,63.1,55.0,29.42,WSW,237,0.0,14.0,75,0.00,,,0.00,Wunderground v.1.13,2013-07-06 10:45:00,
2013-07-06 04:50:00,62.9,55.2,29.44,WSW,240,0.0,14.0,76,0.00,,,0.00,Wunderground v.1.13,2013-07-06 10:50:00,
2013-07-06 04:55:00,63.1,55.0,29.44,West,278,0.0,14.0,75,0.00,,,0.00,Wunderground v.1.13,2013-07-06 10:55:00,
2013-07-06 05:00:00,63.4,55.0,29.44,West,279,0.0,14.0,74,0.00,,,0.00,Wunderground v.1.13,2013-07-06 11:00:00,
2013-07-06 05:05:00,63.4,55.0,29.46,West,279,0.0,14.0,74,0.00,,,0.00,Wunderground v.1.13,2013-07-06 11:05:00,
2013-07-06 05:15:00,63.4,55.3,29.46,West,279,0.0,14.0,75,0.00,,,0.00,Wunderground v.1.13,2013-07-06 11:15:00,
2013-07-06 05:20:00,63.2,55.1,29.46,West,279,0.0,14.0,75,0.00,,,0.00,Wunderground v.1.13,2013-07-06 11:20:00,
2013-07-06 05:25:00,63.4,55.3,29.46,West,279,0.0,14.0,75,0.00,,,0.00,Wunderground v.1.13,2013-07-06 11:25:00,
2013-07-06 05:30:00,63.4,55.3,29.46,West,279,0.0,14.0,75,0.00,,,0.00,Wunderground v.1.13,2013-07-06 11:30:00,
2013-07-06 05:35:00,63.4,55.3,29.44,NNE,25,0.0,14.0,75,0.00,,,0.00,Wunderground v.1.13,2013-07-06 11:35:00,
2013-07-06 05:40:00,63.4,55.7,29.44,NNE,25,0.0,14.0,76,0.00,,,0.00,Wunderground v.1.13,2013-07-06 11:40:00,
2013-07-06 05:45:00,63.2,55.5,29.44,NNE,25,0.0,14.0,76,0.00,,,0.00,Wunderground v.1.13,2013-07-06 11:45:00,
2013-07-06 05:50:00,62.9,55.2,29.44,NNE,25,0.0,14.0,76,0.00,,,0.00,Wunderground v.1.13,2013-07-06 11:50:00,
2013-07-06 06:00:00,62.6,55.6,29.44,NNE,25,0.0,14.0,78,0.00,,,0.00,Wunderground v.1.13,2013-07-06 12:00:00,
2013-07-06 06:05:00,62.7,56.1,29.44,NNE,25,0.0,14.0,79,0.00,,,0.00,Wunderground v.1.13,2013-07-06 12:05:00,
2013-07-06 06:10:00,62.9,56.3,29.44,NNE,25,0.0,14.0,79,0.00,,,0.00,Wunderground v.1.13,2013-07-06 12:10:00,
2013-07-06 06:15:00,63.2,56.9,29.44,NNE,15,0.0,14.0,80,0.00,,,0.00,Wunderground v.1.13,2013-07-06 12:15:00,
2013-07-06 06:20:00,63.5,57.2,29.44,NNE,15,0.0,14.0,80,0.00,,,0.00,Wunderground v.1.13,2013-07-06 12:20:00,
2013-07-06 06:25:00,63.9,57.6,29.44,NNE,15,0.0,14.0,80,0.00,,,0.00,Wunderground v.1.13,2013-07-06 12:25:00,
2013-07-06 06:30:00,64.3,57.6,29.44,NNE,15,0.0,14.0,79,0.00,,,0.00,Wunderground v.1.13,2013-07-06 12:30:00,
2013-07-06 06:35:00,64.7,57.7,29.45,NNE,13,0.0,14.0,78,0.00,,,0.00,Wunderground v.1.13,2013-07-06 12:35:00,
2013-07-06 06:40:00,65.2,57.8,29.45,North,9,0.0,14.0,77,0.00,,,0.00,Wunderground v.1.13,2013-07-06 12:40:00,
2013-07-06 06:45:00,65.5,58.1,29.45,North,9,0.0,14.0,77,0.00,,,0.00,Wunderground v.1.13,2013-07-06 12:45:00,
2013-07-06 06:50:00,66.0,57.8,29.44,North,9,0.0,14.0,75,0.00,,,0.00,Wunderground v.1.13,2013-07-06 12:50:00,
2013-07-06 06:55:00,66.3,58.1,29.44,North,9,0.0,14.0,75,0.00,,,0.00,Wunderground v.1.13,2013-07-06 12:55:00,
2013-07-06 07:00:00,66.6,58.1,29.44,North,9,0.0,14.0,74,0.00,,,0.00,Wunderground v.1.13,2013-07-06 13:00:00,
2013-07-06 07:05:00,66.9,58.0,29.45,North,9,0.0,14.0,73,0.00,,,0.00,Wunderground v.1.13,2013-07-06 13:05:00,
2013-07-06 07:15:00,67.9,57.8,29.45,North,9,0.0,14.0,70,0.00,,,0.00,Wunderground v.1.13,2013-07-06 13:15:00,
2013-07-06 07:20:00,68.4,58.2,29.45,North,360,0.0,14.0,70,0.00,,,0.00,Wunderground v.1.13,2013-07-06 13:20:00,
2013-07-06 07:30:00,69.1,58.1,29.45,NW,310,1.0,1.0,68,0.00,,,0.00,Wunderground v.1.13,2013-07-06 13:30:00,
2013-07-06 07:35:00,69.3,57.9,29.46,West,276,1.0,14.0,67,0.00,,,0.00,Wunderground v.1.13,2013-07-06 13:35:00,
2013-07-06 07:40:00,69.8,57.9,29.46,West,276,1.0,1.0,66,0.00,,,0.00,Wunderground v.1.13,2013-07-06 13:40:00,
2013-07-06 07:45:00,70.6,57.8,29.46,WNW,295,0.0,14.0,64,0.00,,,0.00,Wunderground v.1.13,2013-07-06 13:45:00,
2013-07-06 07:50:00,71.1,57.9,29.46,WNW,298,0.0,14.0,63,0.00,,,0.00,Wunderground v.1.13,2013-07-06 13:50:00,
2013-07-06 07:55:00,71.5,58.2,29.46,NNW,331,0.0,14.0,63,0.00,,,0.00,Wunderground v.1.13,2013-07-06 13:55:00,
2013-07-06 08:00:00,72.1,58.8,29.46,NNW,331,0.0,14.0,63,0.00,,,0.00,Wunderground v.1.13,2013-07-06 14:00:00,
2013-07-06 08:05:00,72.5,59.2,29.46,NNW,331,0.0,14.0,63,0.00,,,0.00,Wunderground v.1.13,2013-07-06 14:05:00,
2013-07-06 08:10:00,72.7,58.9,29.46,NNW,331,0.0,14.0,62,0.00,,,0.00,Wunderground v.1.13,2013-07-06 14:10:00,
2013-07-06 08:15:00,73.3,59.0,29.46,NNW,331,0.0,14.0,61,0.00,,,0.00,Wunderground v.1.13,2013-07-06 14:15:00,
2013-07-06 08:20:00,73.7,58.5,29.46,North,351,0.0,14.0,59,0.00,,,0.00,Wunderground v.1.13,2013-07-06 14:20:00,
2013-07-06 08:30:00,74.4,58.2,29.46,NW,326,0.0,14.0,57,0.00,,,0.00,Wunderground v.1.13,2013-07-06 14:30:00,
2013-07-06 08:35:00,74.7,59.4,29.47,NW,324,0.0,14.0,59,0.00,,,0.00,Wunderground v.1.13,2013-07-06 14:35:00,
2013-07-06 08:40:00,75.3,59.0,29.47,NW,306,0.0,14.0,57,0.00,,,0.00,Wunderground v.1.13,2013-07-06 14:40:00,
2013-07-06 08:45:00,75.4,59.1,29.47,WNW,282,0.0,14.0,57,0.00,,,0.00,Wunderground v.1.13,2013-07-06 14:45:00,
2013-07-06 08:50:00,76.0,58.2,29.47,NW,323,0.0,14.0,54,0.00,,,0.00,Wunderground v.1.13,2013-07-06 14:50:00,
2013-07-06 09:00:00,77.0,58.0,29.47,NW,325,0.0,14.0,52,0.00,,,0.00,Wunderground v.1.13,2013-07-06 15:00:00,
2013-07-06 09:05:00,77.6,58.0,29.47,NNW,335,0.0,14.0,51,0.00,,,0.00,Wunderground v.1.13,2013-07-06 15:05:00,
2013-07-06 09:10:00,77.9,58.9,29.47,North,351,0.0,14.0,52,0.00,,,0.00,Wunderground v.1.13,2013-07-06 15:10:00,
2013-07-06 09:15:00,77.9,56.6,29.47,NNW,348,0.0,14.0,48,0.00,,,0.00,Wunderground v.1.13,2013-07-06 15:15:00,
2013-07-06 09:20:00,78.6,57.8,29.47,NNW,346,0.0,14.0,49,0.00,,,0.00,Wunderground v.1.13,2013-07-06 15:20:00,
2013-07-06 09:25:00,78.8,58.6,29.47,North,351,0.0,14.0,50,0.00,,,0.00,Wunderground v.1.13,2013-07-06 15:25:00,
2013-07-06 09:35:00,79.6,58.8,29.47,NNW,338,0.0,14.0,49,0.00,,,0.00,Wunderground v.1.13,2013-07-06 15:35:00,
2013-07-06 09:40:00,80.3,58.8,29.47,North,360,0.0,14.0,48,0.00,,,0.00,Wunderground v.1.13,2013-07-06 15:40:00,
2013-07-06 09:45:00,80.7,58.6,29.47,NW,323,0.0,14.0,47,0.00,,,0.00,Wunderground v.1.13,2013-07-06 15:45:00,
2013-07-06 09:50:00,80.9,58.8,29.48,North,360,0.0,14.0,47,0.00,,,0.00,Wunderground v.1.13,2013-07-06 15:50:00,
2013-07-06 09:55:00,81.2,58.5,29.48,NW,323,0.0,14.0,46,0.00,,,0.00,Wunderground v.1.13,2013-07-06 15:55:00,
2013-07-06 10:00:00,81.6,57.6,29.48,NE,35,0.0,14.0,44,0.00,,,0.00,Wunderground v.1.13,2013-07-06 16:00:00,
2013-07-06 10:05:00,82.4,59.5,29.48,North,5,0.0,14.0,46,0.00,,,0.00,Wunderground v.1.13,2013-07-06 16:05:00,
2013-07-06 10:10:00,83.2,59.6,29.48,NNW,336,0.0,14.0,45,0.00,,,0.00,Wunderground v.1.13,2013-07-06 16:10:00,
2013-07-06 10:30:00,83.6,58.7,29.48,NNW,343,0.0,14.0,43,0.00,,,0.00,Wunderground v.1.13,2013-07-06 16:30:00,
2013-07-06 10:40:00,84.5,59.5,29.48,NNW,331,1.0,1.0,43,0.00,,,0.00,Wunderground v.1.13,2013-07-06 16:40:00,
2013-07-06 10:45:00,84.7,59.1,29.48,NNE,26,1.0,1.0,42,0.00,,,0.00,Wunderground v.1.13,2013-07-06 16:45:00,
2013-07-06 10:50:00,85.5,58.4,29.48,NW,319,1.0,1.0,40,0.00,,,0.00,Wunderground v.1.13,2013-07-06 16:50:00,
2013-07-06 10:55:00,85.9,59.5,29.48,NNW,338,0.0,14.0,41,0.00,,,0.00,Wunderground v.1.13,2013-07-06 16:55:00,
2013-07-06 11:05:00,86.1,59.6,29.48,North,351,1.0,1.0,41,0.00,,,0.00,Wunderground v.1.13,2013-07-06 17:05:00,
2013-07-06 11:10:00,86.1,59.0,29.48,WNW,297,1.0,14.0,40,0.00,,,0.00,Wunderground v.1.13,2013-07-06 17:10:00,
2013-07-06 11:15:00,86.5,59.3,29.48,NNE,12,1.0,1.0,40,0.00,,,0.00,Wunderground v.1.13,2013-07-06 17:15:00,
2013-07-06 11:25:00,87.2,59.9,29.48,NNW,335,2.0,2.0,40,0.00,,,0.00,Wunderground v.1.13,2013-07-06 17:25:00,
2013-07-06 11:45:00,89.0,58.6,29.48,North,351,0.0,14.0,36,0.00,,,0.00,Wunderground v.1.13,2013-07-06 17:45:00,
2013-07-06 11:50:00,89.5,56.6,29.48,North,351,0.0,14.0,33,0.00,,,0.00,Wunderground v.1.13,2013-07-06 17:50:00,
2013-07-06 11:55:00,89.9,56.1,29.48,NNW,332,0.0,14.0,32,0.00,,,0.00,Wunderground v.1.13,2013-07-06 17:55:00,
2013-07-06 12:10:00,90.7,60.1,29.48,NE,44,0.0,14.0,36,0.00,,,0.00,Wunderground v.1.13,2013-07-06 18:10:00,
2013-07-06 12:25:00,91.8,54.1,29.48,WNW,289,1.0,1.0,28,0.00,,,0.00,Wunderground v.1.13,2013-07-06 18:25:00,
2013-07-06 12:35:00,91.8,53.1,29.48,NW,313,1.0,1.0,27,0.00,,,0.00,Wunderground v.1.13,2013-07-06 18:35:00,
2013-07-06 12:40:00,92.5,54.7,29.48,West,280,0.0,14.0,28,0.00,,,0.00,Wunderground v.1.13,2013-07-06 18:40:00,
2013-07-06 12:45:00,92.9,54.0,29.48,NW,304,1.0,14.0,27,0.00,,,0.00,Wunderground v.1.13,2013-07-06 18:45:00,
2013-07-06 12:50:00,92.7,53.8,29.48,NNW,328,1.0,1.0,27,0.00,,,0.00,Wunderground v.1.13,2013-07-06 18:50:00,
2013-07-06 12:55:00,92.5,53.7,29.48,NNW,336,2.0,2.0,27,0.00,,,0.00,Wunderground v.1.13,2013-07-06 18:55:00,
2013-07-06 13:05:00,92.9,54.0,29.48,NE,38,1.0,1.0,27,0.00,,,0.00,Wunderground v.1.13,2013-07-06 19:05:00,
2013-07-06 13:10:00,92.9,54.0,29.48,WNW,303,1.0,14.0,27,0.00,,,0.00,Wunderground v.1.13,2013-07-06 19:10:00,
2013-07-06 13:20:00,92.7,52.8,29.48,NNE,31,1.0,1.0,26,0.00,,,0.00,Wunderground v.1.13,2013-07-06 19:20:00,
2013-07-06 13:30:00,93.2,53.2,29.48,NW,316,1.0,1.0,26,0.00,,,0.00,Wunderground v.1.13,2013-07-06 19:30:00,
2013-07-06 13:40:00,94.0,52.8,29.47,North,349,1.0,14.0,25,0.00,,,0.00,Wunderground v.1.13,2013-07-06 19:40:00,
2013-07-06 13:50:00,94.9,52.5,29.47,NNW,338,0.0,14.0,24,0.00,,,0.00,Wunderground v.1.13,2013-07-06 19:50:00,
2013-07-06 14:00:00,94.3,53.1,29.47,North,360,1.0,1.0,25,0.00,,,0.00,Wunderground v.1.13,2013-07-06 20:00:00,
2013-07-06 14:05:00,94.3,53.1,29.47,NNW,348,1.0,1.0,25,0.00,,,0.00,Wunderground v.1.13,2013-07-06 20:05:00,
2013-07-06 14:10:00,94.0,52.8,29.47,NNE,13,2.0,2.0,25,0.00,,,0.00,Wunderground v.1.13,2013-07-06 20:10:00,
2013-07-06 14:15:00,94.3,53.1,29.47,WSW,254,1.0,1.0,25,0.00,,,0.00,Wunderground v.1.13,2013-07-06 20:15:00,
2013-07-06 14:30:00,94.7,55.5,29.47,NNW,332,1.0,1.0,27,0.00,,,0.00,Wunderground v.1.13,2013-07-06 20:30:00,
2013-07-06 14:35:00,95.6,53.1,29.46,NNW,331,0.0,14.0,24,0.00,,,0.00,Wunderground v.1.13,2013-07-06 20:35:00,
2013-07-06 14:40:00,95.6,53.1,29.46,NNE,26,1.0,1.0,24,0.00,,,0.00,Wunderground v.1.13,2013-07-06 20:40:00,
2013-07-06 14:50:00,95.4,52.9,29.46,NNW,341,0.0,14.0,24,0.00,,,0.00,Wunderground v.1.13,2013-07-06 20:50:00,
2013-07-06 15:05:00,95.9,52.1,29.46,NNW,344,1.0,1.0,23,0.00,,,0.00,Wunderground v.1.13,2013-07-06 21:05:00,
2013-07-06 15:10:00,96.1,53.5,29.46,North,350,0.0,14.0,24,0.00,,,0.00,Wunderground v.1.13,2013-07-06 21:10:00,
2013-07-06 15:15:00,95.9,52.1,29.46,WNW,299,1.0,1.0,23,0.00,,,0.00,Wunderground v.1.13,2013-07-06 21:15:00,
2013-07-06 15:20:00,95.9,50.9,29.46,NNE,27,1.0,14.0,22,0.00,,,0.00,Wunderground v.1.13,2013-07-06 21:20:00,
2013-07-06 15:25:00,95.6,51.9,29.46,NNW,344,0.0,14.0,23,0.00,,,0.00,Wunderground v.1.13,2013-07-06 21:25:00,
2013-07-06 15:30:00,96.3,53.6,29.46,WNW,302,1.0,1.0,24,0.00,,,0.00,Wunderground v.1.13,2013-07-06 21:30:00,
2013-07-06 15:35:00,96.6,53.9,29.46,NNW,339,1.0,1.0,24,0.00,,,0.00,Wunderground v.1.13,2013-07-06 21:35:00,
2013-07-06 15:40:00,96.3,53.6,29.46,NNW,327,1.0,1.0,24,0.00,,,0.00,Wunderground v.1.13,2013-07-06 21:40:00,
2013-07-06 16:00:00,96.1,53.5,29.46,North,9,0.0,14.0,24,0.00,,,0.00,Wunderground v.1.13,2013-07-06 22:00:00,
2013-07-06 16:05:00,96.1,52.3,29.46,NW,306,1.0,1.0,23,0.00,,,0.00,Wunderground v.1.13,2013-07-06 22:05:00,
2013-07-06 16:10:00,95.6,50.7,29.46,North,360,1.0,1.0,22,0.00,,,0.00,Wunderground v.1.13,2013-07-06 22:10:00,
2013-07-06 16:20:00,94.9,53.6,29.46,NNE,32,1.0,1.0,25,0.00,,,0.00,Wunderground v.1.13,2013-07-06 22:20:00,
2013-07-06 16:35:00,94.7,54.5,29.46,NW,324,0.0,14.0,26,0.00,,,0.00,Wunderground v.1.13,2013-07-06 22:35:00,
2013-07-06 16:40:00,94.7,52.3,29.46,NNE,13,0.0,14.0,24,0.00,,,0.00,Wunderground v.1.13,2013-07-06 22:40:00,
2013-07-06 16:50:00,94.0,51.7,29.46,NNW,345,0.0,14.0,24,0.00,,,0.00,Wunderground v.1.13,2013-07-06 22:50:00,
2013-07-06 16:55:00,94.3,52.0,29.46,NNW,345,0.0,14.0,24,0.00,,,0.00,Wunderground v.1.13,2013-07-06 22:55:00,
2013-07-06 17:00:00,94.5,53.2,29.46,North,350,0.0,14.0,25,0.00,,,0.00,Wunderground v.1.13,2013-07-06 23:00:00,
2013-07-06 17:05:00,94.5,52.1,29.45,North,350,0.0,14.0,24,0.00,,,0.00,Wunderground v.1.13,2013-07-06 23:05:00,
2013-07-06 17:20:00,95.6,54.2,29.45,NNW,341,0.0,14.0,25,0.00,,,0.00,Wunderground v.1.13,2013-07-06 23:20:00,
2013-07-06 17:30:00,94.9,53.6,29.45,NNW,338,1.0,1.0,25,0.00,,,0.00,Wunderground v.1.13,2013-07-06 23:30:00,
2013-07-06 17:35:00,94.5,55.4,29.45,NNE,28,1.0,1.0,27,0.00,,,0.00,Wunderground v.1.13,2013-07-06 23:35:00,
2013-07-06 17:45:00,93.6,55.6,29.45,North,5,1.0,1.0,28,0.00,,,0.00,Wunderground v.1.13,2013-07-06 23:45:00,
2013-07-06 17:55:00,93.2,55.2,29.45,NNE,29,2.0,2.0,28,0.00,,,0.00,Wunderground v.1.13,2013-07-06 23:55:00,
2013-07-06 18:05:00,93.2,54.3,29.45,NNE,17,2.0,2.0,27,0.00,,,0.00,Wunderground v.1.13,2013-07-07 00:05:00,
2013-07-06 18:15:00,93.2,55.2,29.45,NNE,22,1.0,1.0,28,0.00,,,0.00,Wunderground v.1.13,2013-07-07 00:15:00,
2013-07-06 18:20:00,92.9,54.0,29.45,North,5,1.0,1.0,27,0.00,,,0.00,Wunderground v.1.13,2013-07-07 00:20:00,
2013-07-06 18:25:00,92.9,55.0,29.45,North,351,0.0,14.0,28,0.00,,,0.00,Wunderground v.1.13,2013-07-07 00:25:00,
2013-07-06 18:35:00,92.7,53.8,29.45,North,9,0.0,14.0,27,0.00,,,0.00,Wunderground v.1.13,2013-07-07 00:35:00,
2013-07-06 18:40:00,92.5,54.7,29.45,North,9,0.0,14.0,28,0.00,,,0.00,Wunderground v.1.13,2013-07-07 00:40:00,
2013-07-06 18:50:00,91.8,55.0,29.45,NNE,25,0.0,14.0,29,0.00,,,0.00,Wunderground v.1.13,2013-07-07 00:50:00,
2013-07-06 19:00:00,91.0,56.2,29.45,NNE,25,0.0,14.0,31,0.00,,,0.00,Wunderground v.1.13,2013-07-07 01:00:00,
2013-07-06 19:10:00,90.1,57.1,29.45,NNE,25,0.0,14.0,33,0.00,,,0.00,Wunderground v.1.13,2013-07-07 01:10:00,
2013-07-06 19:20:00,89.3,58.1,29.45,NNE,25,0.0,14.0,35,0.00,,,0.00,Wunderground v.1.13,2013-07-07 01:20:00,
2013-07-06 19:25:00,88.6,58.2,29.45,NNE,25,0.0,14.0,36,0.00,,,0.00,Wunderground v.1.13,2013-07-07 01:25:00,
2013-07-06 19:35:00,87.6,58.1,29.46,NNE,25,0.0,14.0,37,0.00,,,0.00,Wunderground v.1.13,2013-07-07 01:35:00,
2013-07-06 19:45:00,86.5,58.6,29.46,NNE,25,0.0,14.0,39,0.00,,,0.00,Wunderground v.1.13,2013-07-07 01:45:00,
2013-07-06 20:00:00,85.3,57.5,29.46,NNE,25,0.0,14.0,39,0.00,,,0.00,Wunderground v.1.13,2013-07-07 02:00:00,
2013-07-06 20:05:00,84.9,57.9,29.47,NNE,25,0.0,14.0,40,0.00,,,0.00,Wunderground v.1.13,2013-07-07 02:05:00,
2013-07-06 20:15:00,84.0,57.8,29.47,NNE,25,0.0,14.0,41,0.00,,,0.00,Wunderground v.1.13,2013-07-07 02:15:00,
2013-07-06 20:20:00,83.4,57.2,29.47,NNE,25,0.0,14.0,41,0.00,,,0.00,Wunderground v.1.13,2013-07-07 02:20:00,
2013-07-06 20:35:00,82.4,57.7,29.47,NNE,22,0.0,14.0,43,0.00,,,0.00,Wunderground v.1.13,2013-07-07 02:35:00,
2013-07-06 20:45:00,82.0,57.3,29.47,NNE,22,0.0,14.0,43,0.00,,,0.00,Wunderground v.1.13,2013-07-07 02:45:00,
2013-07-06 20:50:00,81.8,57.8,29.48,NNE,22,0.0,14.0,44,0.00,,,0.00,Wunderground v.1.13,2013-07-07 02:50:00,
2013-07-06 20:55:00,81.6,57.6,29.48,NNE,22,0.0,14.0,44,0.00,,,0.00,Wunderground v.1.13,2013-07-07 02:55:00,
2013-07-06 21:00:00,81.6,57.6,29.48,NNE,22,0.0,14.0,44,0.00,,,0.00,Wunderground v.1.13,2013-07-07 03:00:00,
2013-07-06 21:15:00,81.2,57.8,29.48,NNE,22,0.0,14.0,45,0.00,,,0.00,Wunderground v.1.13,2013-07-07 03:15:00,
2013-07-06 21:25:00,80.7,58.0,29.49,NNE,19,0.0,14.0,46,0.00,,,0.00,Wunderground v.1.13,2013-07-07 03:25:00,
2013-07-06 21:35:00,80.3,58.2,29.50,NNE,17,0.0,14.0,47,0.00,,,0.00,Wunderground v.1.13,2013-07-07 03:35:00,
2013-07-06 21:45:00,79.8,59.5,29.50,NNE,28,0.0,14.0,50,0.00,,,0.00,Wunderground v.1.13,2013-07-07 03:45:00,
2013-07-06 22:05:00,79.4,60.2,29.51,NNE,30,0.0,14.0,52,0.00,,,0.00,Wunderground v.1.13,2013-07-07 04:05:00,
2013-07-06 22:10:00,79.4,60.2,29.51,NNE,30,0.0,14.0,52,0.00,,,0.00,Wunderground v.1.13,2013-07-07 04:10:00,
2013-07-06 22:15:00,79.2,60.6,29.51,NNE,30,0.0,14.0,53,0.00,,,0.00,Wunderground v.1.13,2013-07-07 04:15:00,
2013-07-06 22:20:00,78.8,60.7,29.51,NNE,30,0.0,14.0,54,0.00,,,0.00,Wunderground v.1.13,2013-07-07 04:20:00,
2013-07-06 22:25:00,78.3,60.3,29.51,NNE,30,0.0,14.0,54,0.00,,,0.00,Wunderground v.1.13,2013-07-07 04:25:00,
2013-07-06 22:30:00,77.9,60.4,29.51,NNE,30,0.0,14.0,55,0.00,,,0.00,Wunderground v.1.13,2013-07-07 04:30:00,
2013-07-06 22:35:00,77.4,60.5,29.51,NNE,30,0.0,14.0,56,0.00,,,0.00,Wunderground v.1.13,2013-07-07 04:35:00,
2013-07-06 22:40:00,77.0,60.6,29.51,NNE,30,0.0,14.0,57,0.00,,,0.00,Wunderground v.1.13,2013-07-07 04:40:00,
2013-07-06 22:45:00,76.8,60.4,29.51,NNE,30,0.0,14.0,57,0.00,,,0.00,Wunderground v.1.13,2013-07-07 04:45:00,
2013-07-06 22:55:00,76.5,60.6,29.51,NNE,30,0.0,14.0,58,0.00,,,0.00,Wunderground v.1.13,2013-07-07 04:55:00,
2013-07-06 23:00:00,76.3,60.9,29.51,NNE,30,0.0,14.0,59,0.00,,,0.00,Wunderground v.1.13,2013-07-07 05:00:00,
2013-07-06 23:10:00,76.0,61.1,29.51,NNE,30,0.0,14.0,60,0.00,,,0.00,Wunderground v.1.13,2013-07-07 05:10:00,
2013-07-06 23:20:00,75.3,61.4,29.51,NNE,30,0.0,14.0,62,0.00,,,0.00,Wunderground v.1.13,2013-07-07 05:20:00,
2013-07-06 23:25:00,74.9,61.0,29.51,NNE,30,0.0,14.0,62,0.00,,,0.00,Wunderground v.1.13,2013-07-07 05:25:00,
2013-07-06 23:30:00,74.7,61.3,29.51,NNE,30,0.0,14.0,63,0.00,,,0.00,Wunderground v.1.13,2013-07-07 05:30:00,
2013-07-06 23:35:00,74.4,61.0,29.51,NNE,30,0.0,14.0,63,0.00,,,0.00,Wunderground v.1.13,2013-07-07 05:35:00,
2013-07-06 23:40:00,74.4,61.0,29.51,NNE,30,0.0,14.0,63,0.00,,,0.00,Wunderground v.1.13,2013-07-07 05:40:00,
2013-07-06 23:45:00,74.4,61.0,29.51,NNE,30,0.0,14.0,63,0.00,,,0.00,Wunderground v.1.13,2013-07-07 05:45:00,
2013-07-06 23:50:00,74.4,61.0,29.51,NNE,30,0.0,14.0,63,0.00,,,0.00,Wunderground v.1.13,2013-07-07 05:50:00,
2013-07-06 23:55:00,74.2,61.2,29.51,NNE,30,0.0,14.0,64,0.00,,,0.00,Wunderground v.1.13,2013-07-07 05:55:00,